Theta_e
322 324 327 326 325 327 327 326 329 328 322 319 323 325 325 324 319 318 319 321 324 326 328 330 331 333 333 333 331 325 318 317 317 317 318 319 320 322 326 327 326 324 324 324
321 326 324 324 324 326 327 328 329 328 315 316 323 324 321 321 322 318 318 319 321 324 326 328 330 332 333 333 333 330 323 318 319 319 320 321 325 326 325 325 325 325 324 323
322 322 323 325 325 326 327 328 329 330 322 320 324 327 327 325 321 319 317 316 318 321 324 326 329 331 333 333 333 332 328 324 320 320 322 325 327 328 328 327 326 324 324 324
320 321 324 326 327 326 328 323 326 326 325 329 322 330 328 328 327 323 319 317 316 318 322 324 327 329 330 331 332 332 331 329 328 327 326 327 328 329 329 327 325 324 324 324
322 321 323 325 324 325 324 322 323 317 322 321 325 325 326 325 327 326 325 320 317 316 319 319 324 322 319 324 325 328 329 330 330 329 329 329 329 329 329 328 327 325 324 323
317 315 322 323 322 324 317 316 316 318 321 327 325 325 324 325 324 323 322 322 321 317 317 317 316 319 320 320 320 323 325 325 328 329 329 330 330 330 331 330 328 327 326 324
317 318 314 318 318 317 317 323 323 326 326 327 317 325 324 323 323 322 319 320 320 318 316 316 317 317 316 318 319 320 321 322 325 327 327 329 330 331 331 331 331 330 328 326
320 319 314 317 318 317 318 322 324 328 325 324 311 323 322 320 317 312 317 315 314 316 317 315 315 316 317 315 317 319 320 320 321 324 326 328 328 330 330 332 331 330 330 329
319 319 313 314 316 317 318 321 319 319 310 320 320 318 317 317 317 316 315 314 314 312 313 314 314 313 313 314 315 317 318 319 320 320 323 325 327 328 329 330 332 329 330 331
317 318 313 311 315 313 319 317 320 320 326 324 321 322 321 317 318 318 316 314 315 314 313 312 311 311 312 312 312 313 314 316 317 319 320 322 323 325 327 328 330 329 329 330
317 317 314 312 316 317 317 318 318 320 321 322 322 321 316 319 316 315 312 310 311 311 310 310 310 311 311 311 311 312 311 311 312 312 316 319 321 323 325 327 328 328 328 329
315 315 314 314 310 312 316 317 318 321 320 319 320 320 313 313 312 311 311 311 311 311 311 311 311 311 311 310 310 310 310 309 309 310 311 317 320 323 323 324 326 328 328 329
313 316 315 313 312 312 314 317 318 318 317 322 323 321 319 313 311 311 311 311 311 311 311 312 312 312 312 310 310 310 310 310 309 309 312 317 319 320 322 323 326 326 328 327
311 315 316 317 316 314 314 315 315 317 319 320 320 320 318 316 315 313 312 313 313 312 312 313 312 312 312 311 310 311 310 309 309 309 313 316 317 319 319 320 320 320 322 325
314 316 315 314 314 314 314 314 315 316 318 319 319 318 318 318 318 317 316 315 314 314 313 312 312 311 311 311 310 310 310 309 309 309 310 312 312 311 311 311 310 311 313 315
312 318 313 311 313 314 315 316 315 315 316 316 317 317 316 315 315 314 314 314 313 313 312 311 311 311 310 309 309 309 310 310 309 309 310 310 310 310 310 311 311 312 313 315
312 311 315 314 312 312 314 314 316 316 315 316 317 317 314 314 314 313 313 312 312 312 311 311 310 309 310 309 309 309 309 310 310 310 310 310 310 310 310 311 311 312 316 318
312 313 312 309 312 313 314 310 314 315 315 315 315 316 315 315 314 313 312 312 311 310 309 309 308 308 308 309 308 308 309 310 310 310 310 310 309 310 312 312 311 314 316 317
312 314 312 313 314 314 309 309 312 314 314 314 314 314 314 313 312 312 311 311 310 309 308 307 307 307 307 307 308 308 308 309 309 310 309 309 309 310 312 313 314 315 316 315
311 312 314 314 315 315 312 310 311 312 312 312 312 313 313 312 312 311 307 307 307 307 308 308 308 308 307 307 307 308 308 308 308 309 309 308 308 309 311 312 313 314 315 313
311 312 314 316 318 319 310 308 309 312 314 308 311 312 311 311 310 307 306 306 307 308 308 308 308 308 307 307 307 307 307 307 307 307 308 308 307 307 310 311 312 313 313 311
311 313 314 316 315 313 307 307 310 311 306 307 307 307 307 308 306 305 305 306 307 307 306 306 307 308 308 308 307 306 306 306 307 307 307 307 307 307 307 309 311 311 310 309
313 312 314 313 314 309 307 309 308 308 307 307 307 307 306 305 304 304 305 305 304 304 304 305 305 305 306 307 308 307 307 307 307 306 306 305 305 305 305 306 307 310 308 305
307 307 314 310 309 308 307 306 307 307 307 307 308 307 307 306 305 304 303 303 303 303 303 303 303 304 304 304 305 306 307 307 307 306 306 305 304 303 302 302 303 304 304 304
308 306 309 308 304 304 306 306 305 305 306 306 305 305 305 304 302 302 302 302 302 302 303 303 303 304 304 304 304 305 305 305 305 305 304 304 303 302 301 300 301 301 301 299
305 309 310 311 307 308 308 305 304 303 303 303 304 302 301 301 301 301 301 301 301 301 300 300 300 301 302 303 303 303 303 303 303 303 302 301 300 300 300 299 299 298 297 296
Wind_Speed
16 7 19 21 17 8 14 11 16 11 5 4 14 18 19 24 17 13 14 17 18 20 19 21 23 25 24 24 25 26 28 27 27 27 27 25 23 22 21 18 20 15 11 11
7 19 18 17 17 14 8 16 16 5 5 4 13 17 13 19 21 20 19 18 20 18 19 21 23 26 28 27 27 26 29 30 31 29 28 27 26 25 24 21 17 15 16 14
18 14 16 19 17 17 10 16 14 11 3 10 14 23 22 19 25 23 22 23 21 22 23 23 26 29 29 33 33 32 33 33 33 32 30 28 24 23 23 23 22 20 18 17
12 15 20 17 21 18 12 3 4 1 3 6 1 8 14 11 20 22 29 28 26 24 25 24 27 31 35 37 35 35 35 35 35 34 33 32 32 30 28 26 21 22 21 21
10 15 20 21 21 18 2 11 4 2 1 7 13 7 8 12 17 17 23 30 29 30 30 30 32 34 36 38 40 40 39 38 37 37 36 35 34 33 28 26 27 26 22 21
4 4 12 18 17 13 18 9 9 7 3 7 15 12 11 15 17 12 18 23 29 31 30 32 30 34 36 38 40 43 44 43 42 41 40 39 38 35 32 31 32 30 28 27
8 11 3 10 11 15 4 12 1 1 4 7 4 11 15 14 12 8 10 13 17 25 29 34 35 37 38 40 42 43 44 44 45 45 44 43 42 37 36 35 36 34 32 32
11 6 11 17 9 10 8 5 5 9 7 7 2 10 5 8 6 9 14 13 12 14 25 27 29 37 39 38 43 44 46 44 45 46 47 45 43 42 38 37 40 38 37 33
16 8 10 13 8 17 6 5 4 4 2 2 7 10 14 14 14 14 17 14 16 6 12 17 23 28 34 37 41 45 45 46 46 45 46 47 45 44 42 41 40 41 38 37
17 7 8 5 13 4 12 13 5 1 6 7 10 15 10 6 10 10 11 8 8 8 9 11 13 16 25 31 35 38 43 46 46 46 46 47 46 47 46 42 41 43 39 36
23 8 5 7 11 15 9 9 7 5 5 4 5 9 4 4 4 4 2 2 1 2 4 4 7 13 18 21 25 32 35 39 43 45 47 48 48 47 45 46 43 43 37 36
9 6 9 12 3 4 16 14 12 7 6 7 4 11 4 5 6 7 6 6 6 6 10 12 12 12 14 15 21 28 30 34 39 43 46 47 48 46 43 43 42 40 38 35
12 8 8 2 5 7 15 18 18 9 3 9 6 11 9 11 5 2 4 3 3 5 7 15 21 20 20 17 15 19 26 32 34 37 38 40 44 41 40 38 38 38 37 36
8 9 11 12 8 14 14 22 19 17 6 17 16 27 7 5 2 4 4 4 10 13 19 25 18 18 22 20 17 16 19 24 29 32 33 35 37 37 37 37 38 37 37 36
8 5 10 6 9 17 17 20 21 24 30 15 23 23 18 18 16 16 17 21 19 21 19 20 21 21 22 21 19 19 18 19 23 26 29 32 33 33 34 36 37 37 37 37
7 4 8 4 9 12 12 20 26 28 26 23 23 22 14 20 15 14 19 21 20 17 22 24 23 26 26 23 20 20 19 19 20 23 26 28 30 31 33 35 34 34 36 37
12 6 4 5 4 6 4 20 23 24 23 27 21 26 9 7 8 16 19 18 17 20 23 21 26 28 28 22 20 18 17 19 20 21 23 27 27 27 29 30 29 30 33 37
15 6 3 4 6 5 6 3 20 22 22 26 23 18 12 16 21 22 21 19 23 25 24 24 25 28 22 19 18 16 16 17 19 21 23 24 25 25 24 25 27 30 33 35
12 5 4 7 11 3 5 3 15 13 20 20 24 20 25 28 17 26 23 24 23 19 23 20 18 17 16 15 15 12 14 16 17 21 22 22 23 23 23 24 26 30 33 36
12 12 5 5 7 11 7 12 18 12 8 14 24 19 19 16 9 11 4 6 7 7 7 8 8 8 8 9 11 10 11 12 16 19 19 21 22 23 23 23 25 26 30 37
6 6 10 4 4 3 4 10 20 9 3 5 15 20 14 9 13 3 3 3 4 3 4 6 7 8 7 6 8 9 9 9 12 15 18 19 21 22 23 24 27 28 30 35
12 11 7 3 5 13 10 13 13 6 8 13 12 9 12 14 10 8 5 4 1 2 3 6 8 8 8 9 7 6 6 7 8 10 13 16 19 22 23 25 28 31 34 36
7 7 6 12 8 2 24 10 16 10 16 14 13 11 10 15 13 11 7 6 2 1 5 6 7 8 7 7 7 8 8 10 10 11 11 13 15 19 22 24 26 30 35 38
3 1 4 5 5 6 22 12 20 14 12 14 13 14 14 15 14 14 11 7 4 2 3 5 6 7 9 10 9 8 7 9 10 11 11 12 14 16 19 23 26 29 34 37
2 10 6 1 2 5 11 20 19 17 15 17 16 15 15 16 16 13 11 7 4 4 4 6 7 9 9 10 10 10 10 11 11 10 10 11 12 14 17 20 24 27 32 36
6 5 8 6 14 11 15 29 21 20 20 17 18 17 16 14 13 12 10 8 7 6 7 7 8 8 8 8 10 10 11 11 11 11 11 11 12 13 15 17 21 26 31 35
Wind_Direction
174 181 201 196 198 218 195 197 232 225 151 224 241 251 248 245 235 237 236 235 224 227 227 222 217 212 207 209 206 207 210 213 213 215 217 220 222 224 223 225 227 238 235 239
165 215 201 202 200 206 216 204 219 260 146 241 262 258 251 254 252 237 237 230 230 224 219 221 218 212 210 210 209 209 214 217 220 221 224 228 233 235 236 236 240 237 241 239
194 191 191 202 198 202 208 215 222 219 161 242 274 274 258 249 244 242 244 235 229 224 219 214 214 215 212 213 214 213 219 220 223 224 225 228 231 232 233 230 233 231 236 234
214 204 190 199 195 195 197 198 236 284 257 268 190 282 272 252 230 223 231 231 227 221 220 218 216 216 216 221 218 223 221 223 225 225 225 229 228 228 230 235 242 236 239 245
175 161 186 195 205 200 165 179 194 105 340 327 241 266 270 245 246 249 229 231 229 221 217 221 218 231 227 226 229 228 227 227 229 229 229 231 232 236 240 236 239 234 235 241
110 168 180 201 200 179 136 97 60 56 44 251 243 242 255 253 242 245 245 248 233 230 218 224 233 234 235 231 231 231 233 233 232 233 233 234 235 236 235 234 234 238 236 238
145 158 119 154 104 135 133 157 136 194 201 249 359 222 254 285 274 277 288 274 242 234 230 226 229 231 236 234 233 233 234 235 236 235 236 237 239 239 239 239 242 241 239 239
158 188 178 171 166 166 172 147 179 202 217 254 128 239 266 234 275 266 247 255 254 244 232 234 232 234 238 238 237 236 236 235 235 236 240 240 239 239 239 237 247 247 246 248
175 151 178 161 129 151 159 178 304 99 40 287 222 248 258 230 250 252 254 247 241 257 251 239 240 237 240 239 238 240 240 239 238 238 239 241 242 241 238 238 241 250 248 242
164 125 184 147 150 197 183 153 130 157 203 241 246 247 246 204 247 263 237 257 247 253 255 267 273 263 253 248 247 245 244 243 243 242 241 241 242 242 241 239 239 245 251 243
159 137 162 159 201 171 162 179 202 188 233 235 279 258 346 242 243 248 89 48 299 225 358 327 269 270 272 262 255 253 250 248 247 243 241 240 241 241 242 243 242 247 247 242
126 113 149 178 100 225 198 186 179 189 182 243 312 263 137 137 127 158 145 112 81 65 40 26 4 348 341 294 266 255 251 246 245 245 240 239 240 240 239 241 241 245 247 241
160 135 115 133 314 211 211 203 199 219 28 206 200 264 224 166 136 165 161 139 5 333 339 340 335 329 333 327 305 273 259 254 247 241 240 237 240 240 240 240 239 242 241 240
133 159 177 186 187 147 194 201 197 199 198 223 217 252 210 145 248 242 238 297 305 300 306 313 321 319 317 314 305 299 274 259 253 246 243 241 242 244 244 244 242 240 238 236
166 140 196 91 147 171 190 192 190 207 224 215 236 242 256 274 290 279 292 298 296 299 304 310 314 318 313 297 296 290 278 260 250 243 241 247 252 253 252 251 250 247 241 237
196 124 134 48 156 170 185 195 204 212 220 230 244 252 273 281 275 285 278 285 287 290 300 306 308 315 315 300 296 291 278 268 253 246 246 245 249 255 259 257 253 247 238 232
163 135 135 143 140 108 281 218 205 215 216 222 232 237 205 282 298 260 270 274 288 290 294 299 299 304 303 302 298 290 282 270 258 252 250 252 253 255 257 256 251 243 237 233
166 120 98 131 138 198 246 238 206 211 217 223 240 252 253 260 265 272 275 286 284 291 298 298 295 295 291 290 291 277 267 263 257 254 254 255 255 253 251 250 250 242 240 238
180 148 118 153 198 326 168 188 187 190 231 221 230 240 243 250 264 271 282 279 275 277 290 296 297 297 281 278 283 280 273 266 258 257 258 259 259 257 253 247 245 243 241 232
182 195 142 159 185 216 160 170 177 177 257 207 221 231 238 250 249 268 255 258 265 281 294 309 322 324 313 295 292 294 288 284 272 266 266 266 263 262 258 252 250 245 245 233
153 196 206 183 215 273 145 149 150 178 252 159 200 216 224 215 226 209 191 259 297 326 17 18 0 339 326 319 314 310 306 304 288 279 270 264 266 262 257 251 250 247 244 237
171 163 188 174 211 237 146 148 187 181 124 145 144 160 180 191 197 215 228 246 265 12 17 30 24 8 348 335 329 324 319 300 286 276 271 266 264 266 260 253 250 249 244 239
188 190 153 190 203 86 171 177 193 163 168 175 178 180 180 187 189 186 184 168 144 353 18 32 19 9 7 356 343 328 314 301 296 296 290 279 265 259 258 254 251 250 246 242
211 159 166 145 181 163 183 181 191 185 182 177 176 171 166 166 166 165 168 164 153 83 26 24 15 5 353 348 340 327 310 298 291 288 289 293 289 279 267 259 255 250 248 246
165 149 156 132 109 100 178 199 186 180 179 172 171 172 173 174 168 167 162 151 119 80 47 30 16 6 357 345 338 333 325 314 302 297 295 291 287 282 275 267 264 260 259 254
190 158 183 217 169 175 195 196 188 179 172 173 172 167 166 169 163 155 146 133 112 84 61 46 37 27 15 3 353 347 340 334 324 315 311 304 297 294 289 283 274 266 260 254